Home > Time Zones > World Clock > Weather > Spain > Ibiza > Past weeks

Flag for Spain Weather past 2 weeks in Ibiza, Ibiza, Spain

Now
55 °F

Passing clouds.


Feels Like: 55 °F
Forecast: 54 / 64 °F
Wind: 3 mph from Southeast

Location: Ibiza / Es Codola

Current Time: Apr 2, 2015 at 12:45:14 AM

Latest Report: Apr 2, 2015 at 12:00 AM


Visibility: N/A

Pressure: 30.33 "Hg

Humidity: 88%

Dew point: 52 °F

Location of IbizaLocation

Historic Weather in Ibiza — Graph

°F

Ibiza temperature yesterday

Maximum temperature yesterday: 68 °F (at 2:00 PM)
Minimum temperature yesterday: 54 °F (at 7:00 AM)
Average temperature yesterday: 61 °F

Past Weeks' High & Low Weather Summary

 TemperatureHumidityPressure
High79 °F (Mar 30, 5:30 PM)100% (Mar 21, 5:00 AM)30.33 "Hg (Mar 21, 5:00 AM)
Low46 °F (Mar 26, 7:30 AM)24% (Mar 30, 5:30 PM)29.53 "Hg (Mar 25, 5:30 AM)
Average59 °F77%29.97 "Hg
* Reported Mar 17 10:00 PM — Apr 1 11:30 PM, Ibiza, Weather by CustomWeather, © 2015

Note: Actual official high and low records may vary slightly from our data, if they occured in-between our weather recording intervals... More about our weather records

Advertising

Ibiza weather history for previous 24 hours

 ConditionsComfort  
Time TempWeatherWind HumidityBarometerVisibility
11:30 PM
Wed, Apr 1
57 °FPassing clouds.6 mph82%30.33 "HgN/A
11:00 PM57 °FPassing clouds.6 mph82%30.33 "HgN/A
10:30 PM57 °FPassing clouds.6 mph82%30.33 "HgN/A
10:00 PM57 °FPartly cloudy.8 mph82%30.30 "HgN/A
9:30 PM57 °FPartly cloudy.7 mph82%30.30 "HgN/A
9:00 PM59 °FScattered clouds.7 mph82%30.30 "HgN/A
8:30 PM59 °FScattered clouds.8 mph82%30.30 "HgN/A
8:00 PM59 °FScattered clouds.9 mph82%30.30 "HgN/A
7:30 PM59 °FScattered clouds.9 mph82%30.30 "HgN/A
7:00 PM59 °FScattered clouds.10 mph82%30.27 "HgN/A
6:30 PM61 °FBroken clouds.10 mph77%30.27 "Hg5 mi
6:00 PM61 °FScattered clouds.13 mph77%30.27 "Hg5 mi
5:30 PM61 °FScattered clouds.14 mph77%30.27 "Hg5 mi
5:00 PM63 °FScattered clouds.15 mph77%30.27 "HgN/A
4:30 PM63 °FScattered clouds.15 mph83%30.27 "HgN/A
4:00 PM63 °FPassing clouds.17 mph77%30.30 "HgN/A
3:30 PM64 °FPassing clouds.17 mph68%30.27 "HgN/A
3:00 PM68 °FSunny.13 mph53%30.30 "Hg10 mi
2:30 PM66 °FSunny.13 mph56%30.30 "Hg10 mi
2:00 PM68 °FSunny.14 mph53%30.30 "Hg10 mi
1:30 PM66 °FSunny.15 mph52%30.30 "Hg10 mi
1:00 PM66 °FSunny.17 mph46%30.30 "Hg10 mi
12:30 PM66 °FSunny.18 mph46%30.30 "Hg10 mi
12:00 PM64 °FSunny.22 mph49%30.30 "Hg10 mi
11:30 AM64 °FSunny.21 mph52%30.33 "Hg10 mi
11:00 AM63 °FSunny.20 mph56%30.30 "Hg10 mi
10:30 AM63 °FSunny.13 mph59%30.30 "Hg10 mi
10:00 AM63 °FSunny.13 mph59%30.30 "Hg10 mi
9:30 AM63 °FSunny.15 mph59%30.30 "Hg10 mi
9:00 AM61 °FSunny.7 mph68%30.27 "Hg10 mi
8:30 AM57 °FClear.7 mph77%30.27 "Hg10 mi
8:00 AM54 °FClear.1 mph82%30.27 "Hg10 mi
7:30 AM54 °FClear.No wind82%30.27 "Hg10 mi
7:00 AM54 °FClear.3 mph77%30.24 "Hg10 mi
6:30 AM55 °FClear.3 mph77%30.24 "Hg10 mi
6:00 AM57 °FClear.3 mph72%30.24 "Hg10 mi
5:30 AM59 °FClear.10 mph68%30.24 "Hg10 mi
4:30 AM63 °FClear.6 mph52%30.24 "Hg10 mi
4:00 AM63 °FClear.5 mph49%30.24 "Hg10 mi
3:30 AM66 °FClear.2 mph40%30.24 "Hg10 mi
3:00 AM64 °FClear.7 mph46%30.24 "Hg10 mi
2:30 AM63 °FClear.7 mph52%30.24 "Hg10 mi
2:00 AM57 °FClear.2 mph67%30.24 "Hg10 mi
1:30 AM55 °FClear.2 mph72%30.24 "Hg10 mi
1:00 AM57 °FClear.1 mph72%30.24 "Hg10 mi
12:30 AM57 °FClear.2 mph72%30.24 "Hg10 mi
12:00 AM61 °FClear.1 mph63%30.21 "Hg10 mi
Weather by CustomWeather, © 2015

See weather overviewHow to use our weather pages